Location: Pedholt
(56.0260°N, 10.2097°E)
Time: 00:48:47
(UTC+00:00)

SR - Pass Details

Date: 03 August 2021
Orbit: 581 x 873 km, 66.7° (Epoch: 27 September)

Event Time Altitude Azimuth Distance (km) Brightness Sun altitude
Rises 12:23:39 0° 315° (NW) 3,203 ? 49.8°
Reaches altitude 10° 12:26:08 10° 317° (NW) 2,227 ? 49.7°
Maximum altitude 12:31:12 78° 44° (NE) 701 ? 49.4°
Drops below altitude 10° 12:35:48 10° 131° (SE) 2,034 ? 49.1°
Sets 12:37:59 0° 133° (SE) 2,902 ? 49.0°
